www.pogodaiklimat.ru

Погода и климат >> Архив погоды >> Греция >> Samos


ПОГОДА в Samos

  • Прогноз погоды в Samos
  • Монитор погоды в Samos
  • Климат города

АРХИВ ПОГОДЫ в Samos

Время (UTC), дата Ветер
(напр.,м/с)
 
Видим.   Явления Облачность Т
(С)
Тd
(С)
f
(%)
Тe
(С)
Тes
(С)
Комфортность P
(гПа)
Po
(гПа)
Тmin
(С)
Tmax
(С)
R
(мм)
R24
(мм)
S
(см)
12 9.10 С 7
{12}
10 км ясно +24.6 +14.2 52 +27 +30 жарко 1013.4 1012.0
15 9.10 С 5
{10}
10 км ясно +24.0 +12.6 49 +26 +26 жарко 1013.0 1011.6
18 9.10 СВ 2
{8}
10 км ясно +22.0 +13.4 58 +25 +25 комфорт 1014.3 1013.0 +24.8
03 10.10 СЗ 3
{8}
10 км ясно +18.6 +13.0 70 +20 +20 1014.3 1013.0
06 10.10 СВ 3
{7}
10 км 3/0
[Ac trans]
+19.8 +13.6 67 +22 +23 комфорт 1015.4 1014.0 +18.6
09 10.10 С 6
{9}
10 км 4/0
[Ac trans]
+22.8 +12.8 53 +26 +28 жарко 1015.5 1014.2
12 10.10 С 7
{9}
10 км 4/0
[Ac trans]
+23.8 +14.0 54 +26 +28 жарко 1014.3 1013.0
15 10.10 С 6
{9}
10 км 4/0
[Ci fib]
+22.0 +11.3 51 +24 +24 комфорт 1013.6 1012.3
18 10.10 С 4
{8}
10 км ясно +20.6 +12.5 60 +23 +23 комфорт 1014.6 1013.3 +23.8
21 10.10 СВ 5
{7}
10 км ясно +18.6 +13.4 72 +19 +19 1016.3 1015.0
03 11.10 С 5
{6}
10 км ясно +17.2 +13.3 78 +17 +17 1014.9 1013.5
06 11.10 СВ 5
{8}
10 км 4/1 750 м
[Cu med, cong Ci]
+18.0 +13.1 73 +18 +18 1016.0 1014.7 +17.0
09 11.10 С 6
{8}
10 км 4/1 750 м
[Cu med, cong Ci]
+20.8 +12.4 59 +23 +26 комфорт 1016.5 1015.1
12 11.10 С 7
{8}
10 км ясно +23.8 +10.5 43 +25 +28 комфорт 1014.9 1013.5
15 11.10 С 6
{8}
10 км ясно +23.4 +12.7 51 +26 +27 жарко 1014.3 1013.0
18 11.10 С 4
{6}
10 км ясно +21.4 +13.1 59 +24 +24 комфорт 1014.5 1013.1 +24.4
03 12.10 С 7
{8}
10 км ясно +17.8 +14.0 78 +17 +17 1015.6 1014.3
06 12.10 С 6
{8}
10 км ясно +18.8 +13.2 70 +19 +20 1016.3 1015.0 +17.8
09 12.10 С 5
{7}
10 км ясно +22.2 +13.6 58 +25 +30 комфорт 1017.0 1015.6
12 12.10 С 5
{9}
10 км ясно +25.4 +13.6 48 +28 +32 жарко 1015.9 1014.6
15 12.10 С 4
{8}
10 км ясно +24.4 +14.0 52 +27 +27 жарко 1014.7 1013.4
18 12.10 СВ 2
{8}
10 км ясно +21.2 +14.8 67 +24 +24 комфорт 1015.4 1014.0 +25.4
03 13.10 СВ 4
{6}
10 км ясно +20.0 +13.0 64 +22 +22 комфорт 1016.3 1015.0
06 13.10 СВ 5
{8}
10 км 8/0
[Ac trans Ci fib]
+21.2 +13.6 62 +24 +24 комфорт 1017.0 1015.6 +19.6
09 13.10 СВ 6
{9}
10 км 6/0
[Ac trans Ci fib]
+22.6 +13.3 56 +26 +28 жарко 1017.5 1016.2
12 13.10 С 4
{8}
10 км 6/0
[Ac trans Ci fib]
+24.2 +15.3 58 +27 +31 жарко 1016.5 1015.1
15 13.10 С 4
{8}
10 км 5/1 600 м
[Cu med, cong Ac trans]
+22.8 +15.1 62 +27 +27 душно 1016.0 1014.7
18 13.10
{7}
10 км 3/1 600 м
[Cu med, cong Ac trans]
+21.4 +15.0 67 1017.0 1015.6 +24.4
03 14.10 С 1
{3}
10 км ясно +20.2 +14.4 69 +24 +24 комфорт 1017.6 1016.3
06 14.10 СВ 3 10 км ясно +20.8 +15.4 71 +24 +25 комфорт 1018.3 1017.0 +20.0
09 14.10 СВ 4
{7}
10 км 1/1 600 м
[Cu med, cong]
+23.4 +14.7 58 +27 +33 душно 1018.3 1017.0
12 14.10 С 5
{8}
10 км 4/4 600 м
[Cu med, cong]
+24.4 +13.5 51 +27 +29 жарко 1017.3 1015.9
15 14.10 С 3
{6}
10 км 3/3 600 м
[Cu med, cong]
+22.0 +13.4 58 +25 +25 комфорт 1016.3 1015.0
18 14.10 штиль 0
{5}
10 км 3/3 600 м
[Cu med, cong]
+20.0 +16.0 78 +22 +22 комфорт 1016.3 1015.0 +24.4
03 15.10 СЗ 3
{4}
10 км ясно +19.2 +15.9 81 +21 +21 комфорт 1016.2 1014.9
06 15.10 С 3
{5}
10 км ясно +20.0 +14.9 72 +23 +24 комфорт 1016.3 1015.0 +18.6
09 15.10 С 6
{8}
10 км 3/3 600 м
[Cu med, cong]
+23.4 +14.7 58 +27 +30 душно 1017.0 1015.6
12 15.10 С 5
{8}
10 км ясно +25.4 +14.4 51 +28 +32 жарко 1015.3 1013.9
15 15.10 С 4
{5}
10 км ясно +24.4 +12.3 47 +26 +26 жарко 1016.2 1014.9
18 15.10 штиль 0
{4}
10 км ясно +21.2 +14.4 65 +24 +24 комфорт 1017.4 1016.0 +25.4
03 16.10 штиль 0
{3}
10 км ясно +18.0 +14.6 81 +18 +18 1017.4 1016.0
06 16.10 С 6
{7}
10 км ясно +17.8 +13.2 74 +17 +18 1017.6 1016.3 +17.4
09 16.10 С 7
{8}
10 км ясно +22.0 +13.8 60 +25 +27 комфорт 1017.1 1015.8

 

Местоположение метеостанции Samos (Греция): широта 37.70 долгота 26.92 высота над уровнем моря 7 м.

В архиве по умолчанию представлена погода в Samos за последнюю неделю. Архивные данные за месяц целиком и за предыдущие месяцы, начиная с января 2011 года, Вы можете получить, выбрав интересующий диапазон дат из раскрывающегося списка и нажав кнопку "Ввод!".


*Определитесь, кто Вы:
робот инопланетянин человек

Внимание! Время в таблицах - всемирное. Для получения местного времени необходимо прибавить поправку, которая в Samos равна 2 ч.

Смотрите также архив погоды в соседних городах и на ближайших метеорологических станциях:

Погода в Kusadasi (Турция) (35 км)
Погода в Izmir Airport (Турция) (67 км)
Погода в Aydin (Турция) (83 км)
Погода в Izmir (Турция) (84 км)
Погода в Bodrum Milas (Турция) (84 км)
Погода в Cesme (Турция) (86 км)
Погода в Bodrum (Турция) (87 км)
Погода в Izmir / Cigli (Турция) (89 км)
Погода в Chios (Греция) (99 км)
Погода в Kos Airport (Греция) (103 км)

Пояснения к столбцам:

Ветер - указаны скорость ветра в м/с - средняя за 10 мин, порывы в срок и между сроками (в фигурных скобках) и направление, откуда дует ветер: С - северный, СВ - северо-восточный, В - восточный, ЮВ - юго-восточный, Ю - южный, ЮЗ - юго-западный, З - западный, СЗ - северо-западный.
Видимость - горизонтальная дальность видимости в метрах или километрах. При видимости от 1 до 10 км при отсутствии осадков обычно наблюдается дымка, при ухудшении видимости до 1 км и менее - туман. В сухую погоду видимость может ухудшаться дымом, пылью или мглою.
Явления - указаны атмосферные явления, наблюдавшиеся в срок или в последний час перед сроком; фигурными скобками обозначены явления, наблюдавшиеся между сроками (за 1-3 часа до срока); квадратными скобками обозначены град или гололедные отложения с указанием их диаметра в мм.
Облачность - указаны через наклонную черту общая и нижняя облачность в баллах и высота нижней границы облаков в метрах; квадратными скобками обозначены формы облаков: Ci - перистые, Cs - перисто-слоистые, Cc - перисто-кучевые, Ac - высококучевые, As - высокослоистые, Sc - слоисто-кучевые, Ns - слоисто-дождевые, Cu - кучевые, Cb - кучево-дождевые. Подробнее классификацию облаков см. в Атласе облаков (PDF).
T - Температура воздуха - температура, измеренная на высоте 2 м над землей.
Td - Температура точки росы - температура, при понижении до которой содержащийся в воздухе водяной пар достигнет насыщения.
f - Относительная влажность воздуха - влажноcть воздуха, измеренная на высоте 2 м над землей.
Te - Эффективная температура - температура, которую ощущает одетый по сезону человек в тени. Характеристика душности погоды. При расчете учитывается влияние влажности воздуха и скорости ветра на теплоощущения человека.
Tes - Эффективная температура на солнце - температура, которую ощущает человек, с поправкой на солнечный нагрев. Характеристика знойности погоды. Зависит от высоты солнца над горизонтом, облачности и скорости ветра. Ночью, в пасмурную погоду, а также при ветре 12 м/с и более поправка равна нулю.
P - Атмосферное давление - приведенное к уровню моря атмосферное давление.
Po - Атмосферное давление - измеренное на уровне метеостанции атмосферное давление.
Tmin - Минимальная температура - минимум температуры воздуха на высоте 2 м над землей.
Tmax - Максимальная температура - максимум температуры воздуха на высоте 2 м над землей.
R - Количество осадков - Количество выпавших осадков за период времени, мм. При наведении курсора мыши на число - период времени, за который выпало указанное количество осадков.
R24 - Количество осадков - Количество выпавших осадков за 24 часа, мм.
S - Снежный покров - Высота снежного покрова, см. При наведении курсора мыши на число - состояние снежного покрова и степень покрытия местности в баллах.